Погода в Мокеевском

Россия / Ярославская область     57°29′19″N   40°06′24″E
темп.,
°C
ветер,
м/с
пор.,
м/с
влажн.,
%
обл.,
%
осадки,
мм/ч
давл.,
гПа
погр.,
м
14 августа, вс
вс1400:00+20зюз116189 0.0 102124
03:00+16юз1174100 0.0 102212
06:00+17юз1174100 0.0 102214
09:00+23всв1154100 0.0 1021372
12:00+27всв1139100 0.0 10211702
15:00+29всв113492 0.0 10202400
18:00+24юв3552100 0.0 1020279
21:00+22вюв2258100 0.0 102126
15 августа, пн
пн1500:00+21юв2459100 0.0 102183
03:00+20вюв226297 0.0 102235
06:00+20вюв236689 0.0 102279
09:00+24юв235034 0.0 1023536
12:00+27юв233835 0.0 10231805
15:00+27вюв343985 0.0 10221410
18:00+26вюв3443100 0.0 1022794
21:00+22вюв3952100 0.0 1023223
16 августа, вт
вт1600:00+20юв3859100 0.0 1024186
03:00+19юв2564100 0.0 1024120
06:00+19юв2466100 0.0 1024142
09:00+22юв345774 0.0 1025330
12:00+27вюв343857 0.0 10242190
15:00+28вюв3335100 0.0 10222203
18:00+26юв244399 0.0 1022761
21:00+23вюв4949100 0.0 1023290
17 августа, ср
ср1700:00+21ююв385477 0.0 1023212
03:00+16вюв23735 0.0 102342
06:00+16вюв25726 0.0 1023118
09:00+23вюв45465 0.0 1022567
12:00+27вюв44375 0.0 10211684
15:00+29вюв433457 0.0 10202105
18:00+27вюв344198 0.0 10201080
21:00+21в410575 0.0 1020190
18 августа, чт
чт1800:00+18вюв37645 0.0 1021113
03:00+16вюв34720 0.0 102268
06:00+16вюв25750 0.0 1022105
09:00+24вюв47470 0.0 1023688
12:00+27вюв56340 0.0 10221975
15:00+29вюв56300 0.0 10212274
18:00+27вюв57360 0.0 10221439
21:00+20вюв39540 0.0 1023149